Theta_e
313 317 321 324 325 325 326 326 326 327 326 322 322 322 324 324 325 329 341 342 342 340 344 342 341 341 340 338 340 338 337 338 338 338 337 337 336 335 336 337 337 338 339 340 339 338 337 336 334
313 320 323 324 323 322 321 324 325 324 324 322 322 322 323 325 326 335 342 342 342 342 343 343 339 340 339 339 340 338 337 336 337 337 336 335 335 335 336 337 338 338 338 339 339 338 336 334 334
317 320 322 322 323 320 320 322 322 322 321 322 322 321 322 325 332 337 340 342 342 342 342 342 339 339 339 339 339 338 337 337 336 336 336 336 336 337 337 338 338 339 339 339 337 336 335 331 326
319 321 321 322 321 323 321 321 322 322 322 321 320 321 321 326 333 338 342 343 343 341 339 340 339 338 338 338 338 338 337 336 337 336 336 336 337 337 338 338 339 338 336 335 334 334 325 322 322
320 320 319 321 321 322 322 321 321 321 320 320 319 321 321 326 336 341 343 343 343 342 341 340 338 339 338 338 337 337 337 337 338 336 336 337 338 338 338 337 336 335 333 331 325 323 324 322 317
318 320 317 317 317 319 319 319 319 319 319 318 319 320 321 326 328 335 342 343 342 342 342 341 338 338 338 338 337 337 337 338 338 337 337 338 338 337 336 333 330 326 325 324 326 325 320 313 308
317 316 315 317 317 318 318 315 318 316 317 317 316 321 321 316 322 333 339 342 342 341 341 340 340 339 338 337 337 337 337 337 337 337 338 336 336 334 331 330 328 326 325 325 323 316 309 305 304
318 316 316 316 314 315 317 316 314 315 317 314 316 321 319 314 316 333 337 337 340 338 340 340 340 340 339 338 337 336 337 337 337 337 336 335 333 331 329 326 324 324 321 316 309 305 304 303 302
315 314 313 314 315 315 315 316 315 313 314 313 315 317 316 312 313 329 334 336 336 336 336 336 337 337 334 335 336 335 336 337 337 335 334 333 329 328 325 323 322 320 312 306 304 303 302 301 301
314 312 311 315 315 315 315 314 313 312 313 313 313 314 314 312 312 316 328 333 334 334 335 335 334 334 333 333 334 335 336 336 334 333 332 329 327 323 320 319 317 310 306 304 302 301 301 301 302
315 312 314 313 314 312 312 311 310 311 312 311 310 311 310 311 311 312 313 314 322 331 333 331 332 331 328 325 331 333 333 333 331 331 330 327 326 321 318 315 309 305 303 302 301 301 301 301 301
312 312 313 313 308 307 309 309 309 309 309 306 306 306 307 309 309 307 307 308 309 317 329 333 332 327 324 322 323 323 329 330 329 329 328 327 324 321 316 310 306 303 302 301 301 301 301 301 301
309 308 307 307 306 306 306 306 307 307 305 306 305 305 305 305 303 303 303 304 304 306 315 330 331 332 326 326 323 324 326 324 325 326 327 328 324 320 311 306 304 302 301 301 301 301 302 302 302
305 305 306 304 304 304 304 305 304 305 304 305 304 303 303 303 302 302 302 302 302 303 305 315 330 329 330 326 323 327 323 323 324 326 328 325 324 323 309 306 303 301 301 301 301 301 302 303 303
303 304 304 304 305 305 304 306 305 303 303 304 304 304 303 303 302 301 301 301 301 303 305 309 325 328 331 327 324 327 327 323 324 327 326 326 324 322 312 304 303 301 300 300 300 300 302 303 304
303 303 305 305 305 305 305 307 305 303 304 304 304 304 303 303 301 300 299 299 300 302 305 309 313 328 328 328 328 327 327 327 327 327 326 325 320 317 307 304 301 300 300 301 302 301 302 303 304
304 305 305 305 304 305 306 307 304 303 303 304 303 302 302 301 300 298 297 298 299 301 304 308 316 326 325 325 326 326 326 325 324 324 324 322 319 316 311 303 301 300 300 301 301 301 302 303 303
304 304 304 304 305 305 305 305 303 302 302 302 301 301 300 300 299 297 296 296 298 300 302 306 311 323 325 324 324 324 323 323 322 320 319 314 313 309 308 305 302 300 300 299 299 300 302 303 302
304 304 304 305 304 304 305 304 304 302 301 300 299 299 299 299 297 296 296 296 297 299 301 303 308 319 322 320 321 320 319 319 319 318 316 312 312 310 309 306 305 306 299 299 299 299 301 302 302
303 304 304 304 303 303 305 305 304 302 299 297 298 297 297 297 297 296 295 296 297 297 299 302 306 313 319 318 318 320 319 317 317 315 314 313 311 311 308 310 309 307 303 300 298 298 301 302 302
304 304 304 304 304 304 303 304 304 300 297 295 295 295 295 295 295 295 294 294 295 296 297 298 300 309 314 316 317 318 317 316 313 311 311 311 311 310 310 309 308 302 298 298 298 299 300 302 301
304 304 304 304 305 306 302 306 301 303 299 295 294 295 294 294 294 293 292 292 293 294 295 297 298 303 308 311 313 313 313 313 312 312 311 309 310 310 309 308 304 301 299 298 298 298 299 300 302
305 303 304 304 304 304 303 303 303 302 301 296 294 293 293 293 293 292 291 291 291 292 293 295 296 297 301 306 308 309 310 310 310 310 309 309 308 308 307 305 302 302 300 298 298 298 297 298 300
301 301 301 301 303 306 303 302 302 302 302 298 293 292 293 293 292 291 290 290 290 290 291 292 294 294 295 298 301 304 305 307 308 307 307 306 307 306 306 305 303 304 303 301 300 298 297 297 297
302 304 307 306 306 306 299 301 301 301 301 297 293 292 292 293 293 292 290 290 289 290 290 290 291 292 293 294 295 297 300 303 305 305 306 305 305 306 306 306 306 304 304 304 302 298 297 297 296
303 304 306 304 304 302 299 303 302 299 296 294 292 292 292 292 292 292 290 289 289 289 289 289 290 290 291 292 293 293 295 298 301 302 303 305 305 305 307 306 305 304 303 303 303 300 296 297 296
302 303 302 302 293 301 301 302 298 295 293 292 292 292 292 292 292 292 291 290 289 288 288 289 289 289 289 290 290 292 293 293 295 299 301 302 302 303 304 304 305 305 304 302 303 301 297 296 296
301 300 302 302 303 303 302 300 301 298 294 292 292 292 291 291 291 291 291 291 290 288 288 288 288 288 288 288 288 289 290 292 293 294 297 299 299 300 301 302 301 303 304 303 304 300 297 295 295
301 302 302 301 302 302 302 300 298 298 298 294 293 292 291 291 291 291 291 291 291 289 288 288 287 287 287 286 287 288 288 289 291 292 292 294 298 298 299 300 300 301 302 303 302 301 298 295 294
293 299 301 304 302 301 300 302 292 294 295 297 294 292 291 291 291 291 290 290 290 290 289 288 287 287 286 286 286 286 287 288 289 290 291 292 293 296 298 298 299 299 299 301 302 301 299 297 294
Wind_Speed
6 5 3 3 4 3 2 3 3 4 1 2 6 6 10 9 6 6 5 3 5 13 12 12 11 12 13 14 15 17 17 16 15 14 14 13 12 11 11 11 10 10 13 14 14 13 13 10 8
5 2 1 1 4 6 2 4 7 4 6 11 6 4 3 3 3 5 0 1 9 12 15 13 10 12 13 14 16 17 17 16 15 14 13 13 12 11 11 11 11 11 12 13 14 14 11 8 9
3 3 2 2 3 6 4 2 5 4 10 7 5 3 5 3 4 5 6 3 9 14 13 13 12 13 13 14 16 18 17 17 16 15 15 14 13 13 12 13 11 14 16 16 13 10 7 9 8
1 2 2 5 6 3 4 2 6 7 2 3 9 10 3 2 7 8 4 3 8 13 17 18 12 13 13 14 16 17 17 17 16 15 15 15 15 15 16 17 18 16 13 10 8 8 9 8 8
3 1 3 3 5 4 8 8 8 12 11 9 7 7 10 7 9 7 1 4 6 10 10 10 14 15 14 15 16 16 17 17 16 16 15 16 18 19 18 16 14 12 10 11 11 10 9 9 8
2 1 4 6 4 4 5 6 8 7 8 8 7 7 2 6 19 12 4 3 5 9 9 12 17 15 14 16 16 17 17 17 18 18 19 19 19 17 15 12 11 10 13 12 11 9 8 8 8
1 2 4 5 7 4 3 5 2 5 4 6 7 5 3 16 24 12 5 2 3 6 8 11 12 13 15 16 16 16 17 17 19 20 20 18 16 14 14 15 15 14 13 10 8 7 6 6 6
2 2 2 2 5 4 3 4 2 6 4 9 4 3 4 16 21 11 5 2 3 4 9 11 12 12 12 14 16 17 19 20 22 22 19 16 16 16 17 15 14 13 12 9 7 6 5 4 3
1 3 3 2 2 2 2 5 1 5 7 8 6 5 5 14 14 11 6 3 4 6 9 11 11 12 13 13 15 17 20 22 22 19 17 16 18 17 13 14 14 11 9 7 6 4 3 3 4
2 2 2 2 2 3 7 7 8 7 11 10 9 9 10 14 12 11 10 9 8 8 7 11 10 11 9 10 13 13 18 21 18 20 18 19 19 14 15 16 12 10 9 7 4 3 4 5 6
2 2 2 2 5 4 7 9 3 7 7 11 15 15 16 15 14 10 8 10 12 11 11 5 4 7 8 13 7 7 15 18 18 21 22 22 19 16 12 14 12 10 7 7 7 6 6 7 7
3 2 3 3 1 4 8 8 7 7 9 13 13 15 15 14 12 13 13 12 13 13 10 5 5 9 6 7 14 15 16 11 18 22 22 21 20 17 14 12 11 9 8 8 7 7 7 8 9
4 3 2 5 9 9 10 10 11 8 10 12 12 8 8 9 14 15 14 12 12 12 11 6 6 10 13 10 12 12 13 9 5 19 25 20 20 17 15 12 10 8 8 7 8 8 8 8 9
2 7 9 5 6 6 5 5 2 2 16 11 9 10 11 13 15 16 19 21 18 15 13 9 6 10 14 18 15 17 12 10 12 16 18 21 17 15 13 11 9 8 7 8 8 8 7 8 8
2 8 7 2 1 0 3 6 5 10 11 8 9 8 8 12 15 16 18 20 21 18 16 11 8 8 15 16 16 19 22 21 18 15 19 16 16 14 12 11 9 8 8 7 8 9 8 8 9
2 3 4 2 1 1 2 4 1 10 9 9 10 9 8 9 13 16 18 19 20 20 18 14 9 9 11 13 14 15 15 16 17 16 20 20 17 15 13 11 10 10 9 8 7 8 7 8 9
2 4 6 4 1 3 2 5 3 7 7 7 8 8 8 9 13 17 19 19 19 19 19 16 9 6 5 7 8 9 7 8 15 21 24 22 20 19 19 11 10 10 10 7 6 6 6 8 9
3 4 4 7 1 4 11 14 4 4 5 5 6 7 8 10 12 15 17 17 17 17 16 16 11 2 5 5 5 5 7 7 9 17 22 22 22 20 19 20 11 6 8 9 6 4 6 7 10
3 6 10 8 5 5 9 10 7 2 1 3 5 7 8 9 11 14 16 17 18 18 18 17 14 5 1 3 5 5 6 6 7 12 17 19 18 18 19 19 19 15 8 7 8 8 8 8 11
6 8 11 10 6 4 8 14 9 5 1 2 3 5 7 9 11 16 18 19 19 19 19 17 16 12 6 2 3 3 6 6 7 10 12 15 16 17 18 19 15 11 11 11 13 12 11 5 9
9 12 8 8 5 8 9 14 9 6 5 3 2 3 6 8 11 13 18 20 20 21 21 19 17 15 11 4 2 5 6 8 8 9 11 14 15 16 17 16 16 16 11 11 12 11 6 4 8
8 9 10 7 4 5 2 6 6 10 9 5 3 3 5 7 9 12 16 19 21 20 18 19 19 17 15 12 7 6 2 3 4 10 11 13 14 16 17 16 16 16 13 11 12 10 7 5 6
2 3 3 4 7 7 8 6 3 6 11 10 7 4 4 6 8 10 13 15 17 20 20 19 19 20 20 16 14 10 8 6 5 7 11 12 13 13 14 15 16 16 15 11 9 9 9 8 6
7 4 3 2 2 6 10 11 11 6 7 11 8 5 3 4 6 9 11 13 17 19 21 21 21 22 21 20 17 14 10 7 5 6 9 12 12 12 14 16 18 19 19 16 14 10 9 10 9
8 6 3 4 4 7 2 7 15 1 3 12 14 8 5 3 5 7 11 14 16 19 19 19 21 23 22 21 19 16 12 8 4 1 4 8 12 15 16 18 20 21 19 17 13 12 11 11 12
14 8 5 6 4 2 3 7 1 3 4 11 10 7 5 3 3 5 8 9 12 14 15 16 17 18 20 19 19 17 16 11 7 3 3 6 10 10 13 17 19 20 19 16 15 13 12 12 12
4 9 8 4 1 4 8 8 4 6 8 9 8 7 5 3 3 4 6 8 10 12 14 15 15 15 17 16 17 18 17 15 12 8 5 5 9 10 11 15 19 21 20 18 15 14 14 12 12
4 3 2 3 6 10 6 6 8 8 10 10 9 8 6 3 2 3 5 7 8 9 10 11 13 14 15 16 17 16 16 15 14 11 8 6 7 8 10 10 14 21 21 20 18 17 15 14 14
4 5 5 3 4 8 12 7 1 1 13 15 14 11 8 4 1 2 5 7 7 8 8 10 12 13 14 16 16 16 16 16 15 14 12 10 8 8 10 12 12 17 21 22 20 19 16 15 15
4 5 9 8 9 4 5 14 2 4 8 14 14 10 7 4 2 4 8 11 8 7 7 7 8 9 11 12 14 15 15 16 16 16 15 14 12 9 11 12 14 15 17 20 21 20 19 17 16
Wind_Direction
338 341 325 263 235 249 245 222 289 204 224 81 310 277 293 298 267 327 357 184 142 154 164 164 180 182 183 175 177 174 174 173 170 167 162 162 165 168 165 161 156 152 145 137 129 123 118 119 113
343 330 294 177 255 240 229 260 250 308 336 321 308 310 257 308 270 316 30 104 154 162 163 163 180 185 183 183 180 177 174 175 173 170 164 166 166 164 158 150 148 145 141 131 125 120 121 115 103
11 3 235 259 253 260 294 241 346 9 320 327 319 329 317 321 6 343 343 151 164 163 172 168 174 195 190 185 180 178 177 175 171 169 166 163 158 154 151 148 144 131 123 121 122 119 120 108 102
48 182 141 250 247 259 276 358 331 335 40 4 335 299 287 360 347 338 345 154 171 180 180 177 170 202 196 187 182 183 180 175 169 168 164 159 155 149 145 140 133 128 128 131 139 137 116 105 103
46 220 228 256 271 279 268 295 301 302 297 306 328 307 304 35 352 353 51 174 173 185 190 171 187 205 199 191 183 184 184 178 169 165 162 154 152 146 143 142 140 145 162 147 133 121 117 111 106
142 289 235 258 269 273 292 322 305 302 301 312 316 305 315 11 358 339 322 213 179 185 194 192 194 204 202 196 189 183 182 174 164 157 157 154 156 154 149 145 142 137 120 120 122 119 114 108 103
159 245 291 291 286 278 322 338 1 345 350 24 330 283 360 357 348 334 319 277 204 185 202 203 205 204 207 200 195 185 179 169 163 162 159 157 159 149 140 136 126 126 123 125 124 120 112 107 107
104 259 236 249 305 321 23 342 22 355 344 325 327 352 352 349 346 330 314 224 249 240 210 217 213 205 204 206 200 189 176 173 170 168 164 160 166 153 145 138 132 131 135 135 126 118 110 100 96
245 241 269 274 257 49 34 338 319 329 287 320 325 293 323 334 352 351 337 296 282 264 238 236 233 232 223 209 208 195 182 180 179 175 170 171 158 151 134 147 145 144 141 137 135 123 93 72 91
238 251 339 341 282 285 307 303 320 310 314 305 309 300 299 329 352 2 353 330 320 306 283 255 242 226 209 227 208 208 198 181 169 169 176 170 164 145 142 148 154 149 146 142 137 131 119 116 106
129 275 54 279 278 297 299 298 315 309 302 328 319 309 314 321 330 337 343 347 332 316 313 293 209 220 228 336 306 236 183 182 175 172 175 173 167 152 146 148 147 149 146 129 126 121 117 113 106
251 270 258 294 5 309 295 316 287 281 319 334 317 304 297 309 325 342 342 334 333 331 324 342 204 200 238 189 253 271 285 209 178 167 175 180 170 167 163 160 160 159 153 142 132 123 112 104 103
242 297 273 274 286 279 285 272 275 281 350 335 2 9 0 353 347 341 339 332 338 328 330 328 244 219 225 214 225 212 222 268 275 173 177 186 177 173 168 165 161 161 155 144 134 123 115 106 101
358 282 279 282 286 262 280 286 233 68 335 334 7 10 5 359 354 346 348 340 340 333 318 316 270 226 225 206 227 196 195 161 195 205 204 199 182 182 173 166 163 158 156 144 136 129 116 108 101
310 296 298 174 275 1 281 229 188 346 335 345 357 358 3 358 349 356 345 338 335 331 321 310 287 239 226 209 220 214 206 200 210 206 199 200 196 183 178 174 161 163 157 146 134 131 116 112 106
260 267 276 134 299 128 260 262 45 1 352 350 349 350 354 359 353 352 349 343 340 335 332 321 288 248 222 216 213 231 228 226 218 200 203 204 193 185 177 183 172 165 152 148 135 128 123 118 116
202 267 257 271 113 322 302 281 9 7 1 357 353 351 349 353 356 355 351 350 346 342 339 335 320 239 219 219 217 210 219 215 208 200 197 195 194 191 180 176 175 164 152 136 134 132 130 131 121
193 235 242 265 110 295 282 272 282 3 351 3 2 355 1 360 359 354 355 356 354 354 351 347 347 288 191 186 212 191 182 189 209 202 199 191 187 186 181 169 156 175 162 147 146 154 138 141 130
229 251 263 268 283 287 273 272 267 260 318 356 23 16 7 11 1 6 5 4 6 9 6 3 355 10 170 171 162 157 153 166 187 204 199 192 187 191 187 170 178 178 172 151 163 162 147 137 141
228 256 265 275 263 261 280 276 267 225 186 10 16 40 18 13 20 16 14 13 17 15 13 13 10 7 1 280 227 197 171 171 180 188 192 196 196 198 189 184 181 172 176 173 176 182 172 150 169
229 241 255 270 307 253 286 273 218 190 164 139 72 62 52 33 19 19 19 17 17 19 17 14 14 30 38 30 111 153 149 129 147 169 177 183 189 195 194 191 180 160 180 184 188 187 183 162 193
253 230 244 264 267 274 302 291 220 198 187 186 148 84 57 42 38 28 24 22 19 19 22 23 24 32 43 45 32 35 55 140 160 180 181 180 191 200 201 197 183 167 174 189 197 198 194 190 205
243 136 208 246 246 295 223 251 230 180 209 196 165 123 62 43 36 33 29 27 26 26 30 29 29 33 36 41 48 47 51 70 108 139 162 176 184 198 201 195 187 182 182 187 202 206 210 216 223
139 118 82 74 257 256 247 225 268 205 232 176 159 142 100 51 40 36 33 31 31 31 32 32 33 33 32 37 38 40 44 45 81 123 156 175 182 192 202 203 203 203 200 200 194 203 218 226 228
187 178 234 231 198 246 61 229 256 234 203 184 161 145 120 78 48 34 30 26 26 28 30 30 33 32 30 32 32 29 35 38 45 67 192 193 194 200 210 214 213 213 215 225 222 217 211 225 233
203 210 226 252 241 321 138 237 232 4 137 139 135 128 125 106 66 42 28 25 23 26 29 31 34 34 34 30 30 28 28 23 17 6 289 254 245 230 220 222 224 224 221 222 228 228 229 228 235
170 218 264 273 136 273 250 251 188 132 135 143 145 157 148 124 65 31 15 17 16 17 20 23 25 31 33 29 31 31 27 23 17 9 348 293 272 268 255 240 234 228 226 223 227 229 234 235 234
249 141 178 212 248 246 235 265 263 192 180 177 179 180 169 153 89 29 7 357 1 5 7 15 21 24 25 25 27 26 26 24 20 13 5 327 297 277 266 251 241 237 232 229 228 228 229 232 239
190 218 228 275 247 263 270 263 93 261 200 196 195 191 179 166 136 346 341 329 329 337 349 358 6 14 18 19 19 19 18 19 20 16 6 348 324 288 268 257 251 245 236 233 229 230 227 228 236
294 275 245 238 233 238 281 263 168 270 248 208 203 196 186 194 240 308 323 319 301 303 316 331 345 358 6 9 13 14 11 12 11 10 7 358 342 314 280 263 255 251 245 239 236 236 230 229 237